Theta_e
300 300 300 300 300 300 300 301 301 302 302 302 302 302 302 302 302 299 295 299 292 289 294 296 296 293 293 293 288 292 289 288 287 285 286 285 284 286 285 288 288 285 284 284 284 284 282 300 299 292 297 305 305 305
300 301 302 301 301 301 301 301 302 302 302 302 302 302 302 302 302 301 294 300 298 291 292 298 298 301 300 299 295 294 291 291 292 289 289 290 286 289 287 283 291 285 291 288 291 290 298 298 299 303 303 302 303 306
300 301 301 302 302 302 302 302 302 302 302 302 302 303 303 303 302 301 297 297 294 288 291 292 291 300 304 303 305 292 295 296 295 298 294 292 286 290 285 287 289 292 295 292 291 295 296 297 301 301 303 302 305 306
300 301 301 301 301 301 302 302 302 302 302 302 302 303 303 303 303 301 297 298 296 293 286 291 299 297 304 304 302 302 299 300 300 298 293 291 289 294 290 291 290 293 294 291 291 295 298 298 300 300 299 301 301 305
300 301 301 301 301 302 302 301 302 302 302 302 302 303 303 303 303 301 300 299 302 294 287 289 296 299 301 303 300 300 299 298 297 292 291 290 294 294 295 294 291 295 293 291 291 294 295 298 299 299 297 297 297 299
300 300 301 301 301 301 301 301 301 301 301 302 302 303 303 302 302 297 289 297 301 302 291 286 297 297 298 299 299 298 299 297 296 292 292 296 298 295 290 289 292 292 293 293 292 293 295 298 299 297 296 295 293 294
300 301 301 301 300 300 301 301 302 302 302 302 302 302 302 302 298 293 293 297 302 303 293 289 290 296 299 297 298 298 299 296 295 294 293 295 296 296 290 288 287 288 289 292 291 292 294 294 290 293 294 295 293 292
299 300 300 300 300 300 300 301 302 302 302 302 302 302 302 301 300 298 300 300 301 294 294 287 288 290 298 293 292 298 294 295 293 293 297 294 297 296 285 284 285 285 287 289 288 289 290 291 289 289 292 292 291 288
299 300 300 300 300 300 299 300 301 301 301 301 301 300 298 296 293 296 300 301 304 297 288 286 285 284 296 291 291 292 293 287 291 290 291 293 286 280 279 281 282 282 282 283 286 287 287 286 285 284 285 288 287 285
299 299 299 299 300 300 300 300 300 300 300 299 299 293 287 295 300 300 295 291 292 294 293 288 291 286 291 290 288 286 289 288 286 289 291 285 279 281 281 282 281 281 281 283 282 283 284 283 283 281 281 282 283 283
299 298 298 299 300 300 300 300 300 301 301 298 290 289 295 299 297 292 287 287 287 284 288 289 289 287 291 288 287 287 287 288 283 286 286 281 278 278 281 280 281 281 281 281 282 282 283 282 281 280 279 279 279 279
298 298 298 298 300 300 300 300 299 299 297 295 292 293 291 287 287 286 284 285 285 283 287 286 287 287 289 291 288 289 285 287 281 284 281 276 277 279 280 279 280 280 279 279 280 279 280 280 280 279 278 276 275 275
298 297 297 296 295 297 299 299 299 297 297 293 288 283 283 279 276 277 276 280 281 282 284 286 285 288 290 292 287 287 283 280 285 278 275 275 277 278 279 279 279 279 279 278 278 278 277 277 277 276 274 274 274 272
297 297 296 296 294 295 298 297 293 292 290 284 280 273 275 273 275 276 277 279 282 282 282 286 288 287 288 285 285 281 280 283 277 273 271 275 276 277 277 278 277 276 275 275 275 275 274 274 273 273 272 272 271 271
297 297 295 294 293 292 291 290 289 289 284 278 279 273 274 276 277 277 279 281 279 279 284 289 286 286 282 280 280 280 276 272 273 272 274 276 276 276 276 276 276 275 274 274 274 273 273 273 273 272 273 273 272 271
297 296 295 292 293 291 290 290 289 287 282 277 275 274 276 277 276 277 276 277 279 280 285 286 283 279 275 276 274 272 272 270 271 274 275 277 275 275 275 276 275 275 275 274 274 274 273 272 271 271 271 271 270 270
296 296 295 293 290 290 289 287 285 279 277 275 273 275 275 275 273 274 275 276 279 281 279 280 275 273 278 273 270 272 270 272 274 275 276 275 275 274 275 274 275 275 274 274 274 273 273 273 273 272 270 271 271 270
295 296 295 296 294 290 287 285 280 277 272 275 273 273 274 274 274 274 276 277 279 279 278 274 278 272 270 269 270 272 273 274 275 274 274 275 274 275 275 274 274 274 273 273 274 273 273 272 271 270 270 271 270 270
295 296 295 293 293 289 283 282 282 273 274 276 276 276 276 275 275 275 277 278 278 279 277 275 270 269 269 272 272 274 274 275 273 273 273 273 274 273 273 274 274 273 273 273 272 271 272 272 272 272 272 272 270 270
294 293 293 293 293 286 280 280 284 277 274 275 277 275 275 274 275 275 275 275 275 274 270 268 268 269 271 273 275 275 275 276 275 273 272 274 274 274 274 275 274 274 274 273 273 272 272 271 271 271 271 271 270 269
294 293 292 294 290 287 283 281 279 279 278 276 278 277 275 276 274 273 273 275 272 270 268 270 271 271 273 274 275 276 275 276 275 275 273 272 274 274 274 274 274 274 273 273 272 271 271 270 270 270 270 269 269 268
291 291 291 291 287 285 283 284 281 282 280 278 277 277 274 273 273 272 274 270 269 269 271 271 272 273 272 271 272 273 273 274 274 273 273 273 273 272 272 273 273 271 271 271 271 270 269 269 270 269 269 268 268 267
289 290 286 285 281 281 279 285 279 279 275 276 277 273 272 272 273 275 270 270 270 273 273 272 272 272 272 272 272 272 273 273 272 272 272 272 272 272 272 272 272 271 270 269 270 269 267 267 267 267 267 267 266 265
285 278 276 277 280 274 278 276 278 276 276 275 272 269 270 272 273 271 267 269 271 273 272 272 273 272 272 272 271 271 272 273 272 272 272 272 271 270 270 270 270 270 270 270 269 268 268 267 266 267 266 265 265 264
277 271 275 272 276 274 272 272 272 273 270 271 269 269 269 272 268 267 266 268 270 270 271 272 272 272 271 271 271 271 272 272 271 269 270 271 270 270 269 268 268 268 270 269 267 266 265 265 265 265 265 265 263 263
268 270 271 271 272 272 272 269 269 270 270 268 267 268 270 268 265 264 267 269 270 271 271 272 272 271 270 271 270 270 269 271 271 269 268 269 269 270 269 268 267 266 268 269 268 266 265 265 264 264 263 262 261 263
267 268 271 272 273 271 270 270 271 269 267 267 268 266 267 263 262 265 270 271 271 272 272 273 273 272 270 268 268 268 269 269 268 267 267 267 267 268 269 268 266 266 268 267 268 267 266 265 264 264 264 264 264 264
269 269 266 265 266 268 264 265 265 265 266 268 267 261 263 263 264 269 270 272 272 271 270 270 270 270 269 268 268 268 267 267 266 267 267 267 266 266 265 266 264 262 266 266 267 266 266 266 265 264 264 265 264 263
267 268 267 260 264 264 263 264 265 266 267 268 265 264 264 267 269 270 270 272 272 271 269 268 267 268 267 267 267 268 268 268 265 262 261 265 266 265 265 266 266 266 267 266 263 264 264 265 264 265 262 265 265 263
266 269 265 262 261 262 263 266 265 265 267 267 268 267 267 267 268 271 271 271 271 270 269 268 267 269 267 268 266 265 265 264 264 265 265 265 265 265 265 265 265 265 266 267 266 265 264 264 262 262 263 263 264 263
269 269 266 265 264 265 266 265 266 267 267 266 268 267 265 267 268 268 268 268 268 267 267 267 266 266 266 266 267 265 265 263 259 260 262 264 264 265 264 263 264 265 265 265 264 264 264 263 263 262 262 261 261 259
266 266 265 263 264 266 267 267 267 267 267 267 265 266 265 267 265 266 266 267 268 268 264 267 268 267 265 264 262 263 259 263 262 262 261 263 264 262 263 263 262 263 263 263 263 263 260 260 262 262 261 261 261 260
267 267 267 266 265 265 265 267 266 265 266 266 264 263 264 265 263 266 265 264 267 269 268 267 266 264 262 263 263 262 262 262 259 260 258 258 257 259 262 263 262 261 260 261 262 261 259 258 260 259 259 258 258 258
Wind_Speed
24 24 24 24 23 23 24 24 24 23 23 24 24 24 24 24 24 14 5 8 2 3 8 13 21 21 15 14 9 7 6 4 3 8 7 5 5 8 7 8 5 7 10 9 10 6 8 13 2 6 1 15 8 5
24 24 25 22 24 25 25 26 25 25 25 24 24 24 27 25 26 24 4 9 5 2 1 3 5 15 22 21 11 12 8 8 7 7 6 4 5 3 9 5 4 7 7 3 5 4 5 10 8 8 11 11 11 13
26 22 19 19 18 21 21 22 23 24 24 25 25 24 27 27 27 24 6 10 5 2 3 3 6 8 8 9 14 9 10 8 8 5 3 4 5 6 7 9 6 3 4 4 4 8 6 8 8 11 13 14 14 13
25 19 18 18 19 20 20 20 21 22 24 26 26 25 27 29 28 25 8 8 7 3 3 2 8 8 9 9 12 11 7 8 5 3 2 4 4 5 7 9 7 4 1 4 6 5 11 5 13 16 17 17 17 16
20 18 18 19 18 17 16 17 17 19 19 23 25 26 26 29 30 18 8 10 9 5 4 5 4 14 11 11 13 10 8 8 6 4 4 6 5 3 3 3 8 4 6 5 3 5 7 10 17 17 17 17 16 14
20 18 18 14 16 16 17 20 18 20 22 20 21 25 27 29 29 9 4 7 8 3 2 5 3 7 13 14 15 13 10 6 3 3 3 4 4 5 3 5 7 6 7 7 6 12 12 11 10 17 15 13 13 11
19 16 16 14 18 20 17 17 14 9 23 22 23 27 27 28 12 6 3 10 15 6 3 2 3 8 12 11 9 9 10 4 4 3 4 5 3 3 3 2 7 8 8 6 9 12 5 12 9 13 14 11 6 7
17 13 17 17 19 25 16 18 21 23 24 26 25 25 24 25 12 2 4 26 14 4 2 2 2 4 10 5 6 6 6 5 5 2 2 4 2 3 3 6 8 10 10 4 12 10 8 9 10 11 11 9 6 7
15 9 12 16 18 23 25 25 30 33 35 35 33 28 10 4 3 4 21 16 3 2 5 3 4 3 7 2 2 2 2 3 2 4 4 1 2 4 5 8 10 11 9 11 13 9 9 9 9 10 10 9 6 6
14 10 12 13 14 16 16 22 26 26 21 15 5 4 4 5 27 17 4 2 2 1 0 3 2 3 5 3 3 4 3 4 5 4 3 4 4 8 8 8 9 10 11 11 10 9 12 9 8 7 7 7 6 6
15 15 12 9 7 9 11 12 9 8 4 3 4 5 6 4 2 3 4 4 4 4 4 3 5 2 3 5 4 3 3 4 4 3 2 3 4 6 7 8 8 10 10 8 8 7 7 6 5 4 6 8 8 8
12 11 11 5 7 11 14 12 13 6 4 7 8 5 3 5 3 2 3 3 3 2 1 1 2 2 3 4 3 4 2 2 4 2 3 4 5 7 8 9 8 8 9 8 7 6 7 7 5 6 7 8 10 11
9 11 9 9 9 7 6 11 12 9 4 4 5 6 6 5 5 3 3 3 2 4 3 1 3 3 3 2 2 2 3 4 3 4 4 4 6 7 8 8 7 8 9 8 8 8 9 10 11 10 11 11 13 14
7 9 10 10 12 6 10 12 7 7 8 7 5 6 5 4 4 3 3 3 3 4 6 5 4 4 2 4 3 5 3 1 4 4 4 4 6 7 7 7 7 9 9 9 9 10 11 12 13 13 12 12 13 14
4 7 8 11 13 14 16 17 15 7 5 6 5 6 5 3 3 4 4 2 5 6 5 1 4 4 6 6 4 4 4 5 5 4 4 5 6 5 6 7 7 7 7 8 8 10 11 12 13 14 13 14 14 13
4 4 6 9 6 9 10 9 7 4 5 5 8 3 4 1 6 4 7 4 7 7 4 2 4 5 7 3 5 6 3 4 4 4 4 4 5 6 7 9 9 8 9 10 10 11 12 12 13 15 15 14 14 14
4 2 7 9 17 15 9 5 4 8 6 6 5 5 4 3 5 5 6 8 7 4 4 3 7 7 2 5 5 5 5 5 5 5 5 7 7 7 7 8 8 9 10 11 11 12 12 12 12 14 16 14 14 14
3 5 7 5 7 4 4 6 6 7 8 6 5 5 7 6 5 6 7 8 6 4 4 6 3 6 6 4 4 4 4 5 6 6 6 6 7 7 7 8 9 9 10 10 11 11 11 11 12 10 12 11 11 12
5 5 5 6 3 5 5 6 5 7 7 3 3 3 4 3 7 6 7 7 7 7 5 4 7 5 4 4 5 5 4 3 5 5 6 7 7 7 8 8 9 10 9 9 9 8 8 10 8 7 7 6 8 7
3 13 10 6 1 5 6 5 3 6 4 4 3 5 4 4 4 6 9 8 9 5 8 7 6 5 5 5 4 5 5 4 4 5 5 5 5 6 7 6 6 7 7 8 8 7 7 7 7 7 6 7 7 8
2 5 7 4 5 8 6 4 5 4 5 4 3 2 4 6 9 8 7 7 8 7 6 5 5 5 6 6 5 4 5 3 3 3 5 5 4 5 5 5 5 5 5 5 6 7 7 7 6 6 7 7 7 7
3 5 2 4 5 5 5 6 5 5 4 5 3 3 4 4 5 8 5 9 7 6 4 4 5 4 6 8 7 8 7 8 8 7 7 5 5 5 5 5 4 6 6 6 5 6 6 5 5 6 7 7 7 7
1 3 4 4 6 6 5 1 4 3 4 3 3 4 4 4 4 3 6 5 4 4 4 5 7 8 8 8 9 9 7 7 6 6 6 5 5 5 5 5 4 4 5 5 5 5 5 6 6 6 6 7 7 7
7 7 6 5 6 5 2 4 3 4 4 3 4 4 4 3 2 5 6 3 4 3 4 4 3 5 6 7 7 7 6 5 6 6 5 4 5 5 5 5 5 5 5 4 4 5 5 5 5 5 6 6 6 5
7 9 5 7 4 5 5 4 4 4 5 4 4 4 3 2 4 5 4 3 3 4 3 4 4 4 5 5 5 5 6 4 4 5 5 4 4 4 4 5 5 5 3 4 4 5 5 5 5 5 6 5 6 6
9 8 6 4 3 4 3 5 4 4 4 4 5 3 1 3 5 5 3 3 3 3 2 3 3 3 4 4 3 3 4 4 2 4 4 4 4 2 2 2 2 4 4 3 4 5 6 5 5 6 6 6 4 4
6 6 5 4 3 5 6 5 4 5 5 4 3 3 2 5 5 3 4 2 3 3 3 2 2 3 4 4 5 4 4 5 6 5 4 4 4 5 3 2 3 4 2 3 3 3 5 5 5 4 4 3 3 1
5 6 5 5 6 5 6 4 5 5 3 2 2 5 4 4 4 3 3 4 4 4 5 5 6 5 5 5 5 5 5 5 5 5 5 5 5 5 5 5 5 5 3 3 4 3 3 4 4 4 4 3 3 2
5 3 4 6 6 7 8 5 4 3 3 1 4 4 4 3 2 3 4 4 4 4 5 5 4 4 4 4 3 4 3 3 3 1 1 2 2 3 3 3 3 3 3 4 4 4 4 3 3 2 2 0 2 1
4 3 5 5 6 7 6 5 5 3 4 4 4 5 5 4 4 2 3 4 3 4 4 4 3 1 3 2 3 2 3 3 3 3 2 2 3 4 2 2 2 3 2 2 3 3 5 3 3 2 2 2 3 3
2 3 6 6 7 5 5 3 2 4 3 5 6 7 6 4 3 3 4 3 4 4 4 3 3 1 2 2 0 2 2 3 3 3 3 3 3 3 3 2 2 1 1 1 0 1 1 2 2 3 4 4 4 4
4 5 6 7 5 4 0 2 3 4 3 3 3 2 3 3 4 3 2 1 3 3 2 1 1 3 2 3 2 3 4 4 3 3 4 3 3 3 2 2 1 1 1 1 1 1 2 3 3 3 4 5 5 6
5 5 5 6 5 5 3 2 3 4 3 2 3 2 2 2 3 3 3 1 2 2 3 3 4 4 5 4 5 5 4 4 5 5 5 5 5 3 2 2 2 2 2 2 2 2 3 4 4 4 5 5 6 6
Wind_Direction
301 297 288 278 272 268 264 260 255 250 246 240 230 225 218 208 198 183 171 189 184 186 225 223 219 223 209 201 186 156 146 164 173 203 206 183 233 225 256 259 147 175 194 196 225 239 238 12 44 5 4 286 0 318
305 301 306 282 271 268 265 261 253 247 242 237 231 227 209 204 197 185 174 164 168 284 17 314 302 267 216 200 187 170 201 147 176 212 209 211 209 228 242 253 195 202 214 205 243 220 62 27 304 16 343 335 347 323
316 305 299 299 287 279 268 260 251 243 234 229 225 216 206 199 192 183 171 146 145 162 261 233 233 246 246 243 193 190 218 171 199 217 194 220 235 212 217 240 270 218 218 250 239 149 77 283 35 7 354 340 326 312
314 309 308 309 298 287 274 264 254 245 235 223 218 209 199 195 186 177 171 156 150 151 225 184 200 202 211 211 218 222 188 190 130 206 209 237 235 220 236 254 269 300 169 315 282 301 319 156 24 1 352 356 352 341
325 318 319 309 308 307 302 288 263 241 229 213 203 199 191 181 179 167 156 173 176 206 178 219 174 206 196 198 200 204 189 176 192 184 190 216 242 238 226 262 249 303 336 286 2 39 308 318 354 3 351 356 353 349
329 322 338 338 335 330 320 304 278 240 212 200 191 182 172 171 167 138 131 195 189 199 219 188 127 169 194 205 207 201 196 198 222 166 241 232 243 220 250 238 69 60 30 12 342 334 309 311 329 0 348 358 358 3
335 338 354 8 7 358 354 348 341 193 167 167 161 162 163 162 142 149 146 154 163 183 241 185 180 176 170 174 202 203 193 183 200 216 209 249 218 211 188 298 30 22 355 11 13 345 334 0 333 341 334 340 356 25
339 342 11 18 16 17 23 27 60 94 121 127 132 131 143 129 105 113 82 140 124 100 264 283 206 166 171 162 165 190 180 175 188 219 248 230 206 236 42 21 6 8 352 63 356 348 323 330 349 354 342 346 9 25
344 5 28 14 18 27 43 68 77 87 92 97 98 104 97 70 105 88 129 119 114 189 183 189 208 169 165 128 108 103 96 153 113 205 194 281 59 72 16 347 360 3 359 336 329 328 1 359 356 0 3 4 30 39
354 358 20 12 13 32 42 61 80 88 92 84 57 72 72 65 114 113 69 88 185 192 123 221 140 208 203 139 113 122 194 162 177 167 82 102 86 86 23 11 357 351 346 344 343 344 341 340 352 10 21 22 37 60
2 7 26 33 35 37 40 33 36 124 145 50 48 58 90 55 94 85 130 173 150 194 193 201 195 157 269 163 127 167 156 161 172 127 182 112 108 33 16 3 1 352 349 348 335 328 334 334 346 28 47 53 55 58
18 23 33 41 1 25 34 40 29 63 48 81 100 94 71 24 52 109 122 149 212 125 149 223 164 161 171 129 129 170 86 186 108 64 86 109 63 18 4 0 1 360 359 359 6 8 20 32 41 74 77 77 74 68
14 35 33 33 44 14 42 74 68 79 117 72 55 52 16 357 57 20 127 111 122 351 4 240 176 197 93 68 84 109 109 66 121 52 66 54 26 13 2 358 6 16 16 25 31 46 57 64 64 79 87 87 89 83
9 26 35 44 64 62 79 75 67 39 50 48 40 57 29 42 56 39 358 12 5 303 320 311 69 56 38 79 17 82 62 119 92 115 90 53 18 8 12 13 18 26 32 43 52 59 68 74 74 74 76 81 86 82
177 54 44 24 78 85 78 70 62 56 54 63 32 60 57 9 23 354 332 293 354 304 333 92 70 44 37 71 34 115 88 77 37 74 74 40 19 13 33 38 46 54 55 62 68 70 73 79 83 82 82 85 84 84
197 146 49 49 92 109 79 67 45 70 66 70 45 58 6 9 30 15 6 11 6 335 295 358 80 73 53 47 60 38 81 69 90 68 55 66 50 42 45 55 58 61 69 74 77 78 75 78 82 84 79 74 75 78
132 68 5 113 88 78 48 66 61 53 58 49 53 28 8 41 22 11 349 349 327 299 39 21 51 49 72 60 59 19 47 78 84 74 58 45 48 55 59 64 62 75 79 78 77 75 75 79 84 84 81 78 80 78
46 335 325 164 171 95 57 42 76 70 69 54 73 48 53 35 1 21 355 354 356 32 31 55 52 49 38 54 64 94 89 80 66 62 50 55 64 62 67 73 69 75 76 75 79 84 86 86 84 82 89 93 90 84
37 24 53 105 111 86 69 53 45 83 61 64 69 43 40 52 43 20 10 18 37 42 79 60 58 47 59 47 79 95 101 92 97 83 76 63 64 81 84 81 80 78 75 75 76 73 68 64 73 84 90 94 90 90
126 41 33 54 11 82 76 59 63 84 82 91 70 50 57 38 21 22 29 27 36 59 49 45 45 49 50 48 46 73 87 106 118 109 92 79 78 81 70 82 87 96 93 90 83 89 91 82 66 67 76 85 91 86
52 17 19 41 62 61 76 83 67 78 118 88 117 66 75 49 45 37 33 16 52 36 66 56 66 61 46 43 43 60 56 41 51 67 103 100 74 76 80 75 75 78 82 82 87 82 73 74 76 77 80 80 80 80
21 357 74 35 80 77 75 32 91 124 89 104 96 55 56 44 32 30 36 39 59 42 38 50 53 69 69 53 52 54 66 83 87 91 88 96 88 79 68 61 76 76 69 65 70 78 79 78 84 88 96 101 99 97
42 41 50 44 81 68 87 228 80 67 96 91 90 66 56 55 51 32 73 50 73 45 56 67 71 66 78 81 76 67 61 76 80 78 78 78 76 72 72 62 60 78 85 72 75 86 86 91 93 100 106 108 109 107
37 48 38 52 60 94 102 60 63 76 73 67 66 72 55 51 62 69 75 69 64 60 71 78 93 104 96 77 68 63 57 67 80 73 58 76 84 70 64 66 62 54 60 84 89 92 92 93 111 104 106 108 103 107
73 13 5 61 46 89 79 71 53 70 80 59 86 78 66 20 72 70 78 100 95 69 55 78 86 77 89 89 83 73 39 39 69 82 55 59 86 100 88 76 67 52 58 111 107 106 100 103 107 113 113 113 115 116
72 21 34 38 51 75 68 91 72 82 89 77 63 69 48 73 73 74 82 123 106 87 84 77 88 106 85 50 80 67 42 9 61 85 61 23 25 34 89 102 106 84 37 74 126 127 122 121 121 124 116 114 106 128
75 50 56 29 58 93 97 75 66 72 72 76 86 82 74 71 80 93 124 86 106 85 66 36 47 77 95 96 84 65 56 49 54 71 74 56 46 27 13 42 82 77 70 70 100 143 144 147 147 152 137 139 152 143
70 32 74 19 64 33 90 70 55 64 79 70 98 49 71 61 105 106 81 104 96 94 84 68 57 68 82 89 95 99 88 91 100 106 109 92 68 61 59 66 54 61 65 43 89 104 126 148 156 163 172 165 144 162
60 56 79 53 58 55 40 44 74 61 20 33 92 92 94 66 51 115 116 112 118 123 113 108 88 92 90 86 78 79 41 7 358 33 77 92 139 106 57 64 73 67 83 101 88 87 91 96 113 121 134 109 89 129
63 20 89 64 55 53 36 13 76 71 50 41 91 112 96 85 60 41 119 131 133 107 91 89 95 103 106 133 127 124 60 12 346 320 348 44 70 94 119 107 85 71 50 87 109 106 104 113 130 150 188 221 242 266
47 93 78 62 80 81 86 75 118 100 64 60 53 82 90 98 109 48 48 56 100 121 138 132 123 117 128 138 120 152 125 71 49 44 46 88 102 100 86 70 60 46 41 43 32 277 261 251 263 272 268 276 285 272
39 60 117 102 116 143 296 35 54 66 56 55 77 105 138 151 134 135 56 199 171 173 114 157 138 108 98 80 72 70 40 105 106 88 77 77 78 68 69 65 74 2 4 358 355 322 282 286 288 292 293 290 298 300
94 77 81 107 118 149 140 124 68 105 71 81 81 33 37 16 127 112 120 13 325 41 122 103 87 93 98 93 102 111 101 84 73 64 70 57 48 46 47 49 22 359 328 315 312 302 282 281 285 296 295 298 296 297